Weather History for Aurora, NE

Change the Weather History Date:

Wednesday, January 16, 2013

  Actual Average Record
Temperature  
Mean Temperature 32 °F -  
Max Temperature 47 °F 35 °F 54 °F (1990)
Min Temperature 18 °F 13 °F -13 °F (1977)
Degree Days  
Heating Degree Days 32    
Moisture  
Dew Point 27 °F    
Average Humidity 71    
Maximum Humidity 85    
Minimum Humidity 50    
Precipitation  
Precipitation 0.00 in - - ()
Sea Level Pressure  
Sea Level Pressure 30.04 in    
Wind  
Wind Speed 11 mph (WNW)    
Max Wind Speed 17 mph    
Max Gust Speed 17 mph    
Visibility 10 miles    
Events      
Averages and records for this station are not official NWS values.
T = Trace of Precipitation, MM = Missing Value Source: NWS Daily Summary

Daily Weather History Graph

Daily Weather History Graph

Search for Another Location

Airport:

Trip Planner

Search our weather history database for the weather conditions in past years. The results will help you decide how hot, cold, wet, or windy it might be!

Date:

Astronomy

Jan. 16, 2013 Rise Set
Actual Time 7:53 AM CST 5:30 PM CST
Civil Twilight 7:23 AM CST 6:00 PM CST
Nautical Twilight 6:49 AM CST 6:34 PM CST
Astronomical Twilight 6:17 AM CST 7:07 PM CST
Moon 10:28 AM CST (1/16) 11:26 PM CST (1/16)
Length of Visible Light 10h 36m
Length of Day
9h 36m
Waxing Crescent, 28% of the Moon is Illuminated
Jan 16
Waxing Crescent
Jan 18
First Quarter
Jan 26
Full
Feb 3
Last Quarter
Feb 10
New

Hourly Weather History & Observations

Time (CST) Temp. Windchill Dew Point Humidity Pressure Visibility Wind Dir Wind Speed Gust Speed Precip Events Conditions
12:15 AM 18.9 °F 6.5 °F 11.7 °F 74% 29.99 in 10.0 mi SW 11.5 mph - N/A   Clear
12:35 AM 19.8 °F 7.1 °F 11.5 °F 70% 29.98 in 10.0 mi SW 12.7 mph - N/A   Clear
12:55 AM 19.8 °F 8.3 °F 11.8 °F 71% 29.98 in 10.0 mi WSW 10.4 mph - N/A   Scattered Clouds
1:15 AM 20.8 °F 9.0 °F 12.9 °F 71% 29.98 in 10.0 mi WSW 11.5 mph - N/A   Mostly Cloudy
1:35 AM 21.4 °F 10.4 °F 14.2 °F 74% 29.97 in 10.0 mi WSW 10.4 mph - N/A   Overcast
1:55 AM 22.3 °F 10.2 °F 15.4 °F 75% 29.96 in 10.0 mi WSW 12.7 mph - N/A   Overcast
2:35 AM 25.0 °F 13.1 °F 18.0 °F 75% 29.96 in 10.0 mi West 13.8 mph - N/A   Overcast
2:55 AM 26.1 °F 14.5 °F 18.7 °F 74% 29.96 in 10.0 mi WSW 13.8 mph - N/A   Overcast
3:15 AM 26.1 °F 16.2 °F 19.6 °F 76% 29.95 in 10.0 mi WSW 10.4 mph - N/A   Overcast
3:35 AM 25.7 °F 15.7 °F 19.6 °F 78% 29.94 in 10.0 mi WSW 10.4 mph - N/A   Overcast
3:55 AM 25.0 °F 13.6 °F 19.4 °F 79% 29.94 in 10.0 mi WSW 12.7 mph - N/A   Mostly Cloudy
4:35 AM 26.8 °F 16.5 °F 21.7 °F 81% 29.93 in 10.0 mi WSW 11.5 mph - N/A   Overcast
4:55 AM 28.2 °F 17.7 °F 23.0 °F 81% 29.93 in 10.0 mi West 12.7 mph - N/A   Overcast
5:15 AM 29.3 °F 19.6 °F 23.9 °F 80% 29.93 in 10.0 mi WSW 11.5 mph - N/A   Overcast
5:35 AM 29.7 °F 20.1 °F 24.6 °F 81% 29.92 in 10.0 mi WSW 11.5 mph - N/A   Overcast
6:35 AM 31.8 °F 22.8 °F 26.6 °F 81% 29.94 in 10.0 mi West 11.5 mph - N/A   Overcast
6:55 AM 32.0 °F 23.6 °F 27.5 °F 83% 29.95 in 10.0 mi West 10.4 mph - N/A   Overcast
7:15 AM 31.1 °F 22.4 °F 26.6 °F 83% 29.95 in 10.0 mi West 10.4 mph - N/A   Mostly Cloudy
7:35 AM 32.2 °F 23.2 °F 28.2 °F 85% 29.96 in 10.0 mi West 11.5 mph - N/A   Mostly Cloudy
7:55 AM 33.1 °F 23.9 °F 28.9 °F 85% 29.97 in 10.0 mi West 12.7 mph - N/A   Mostly Cloudy
8:15 AM 32.9 °F 24.1 °F 28.6 °F 84% 29.97 in 10.0 mi West 11.5 mph - N/A   Scattered Clouds
8:35 AM 33.1 °F 23.9 °F 28.9 °F 85% 29.98 in 10.0 mi West 12.7 mph - N/A   Clear
8:55 AM 34.2 °F 24.8 °F 29.3 °F 82% 29.99 in 10.0 mi West 13.8 mph - N/A   Clear
9:15 AM 35.6 °F 26.2 °F 29.7 °F 79% 29.99 in 10.0 mi West 15.0 mph - N/A   Clear
9:35 AM 36.5 °F 27.4 °F 30.2 °F 78% 29.99 in 10.0 mi West 15.0 mph - N/A   Clear
9:55 AM 37.6 °F 29.6 °F 30.4 °F 75% 29.99 in 10.0 mi WNW 12.7 mph - N/A   Clear
10:15 AM 38.7 °F 30.5 °F 30.7 °F 73% 29.99 in 10.0 mi WNW 13.8 mph - N/A   Clear
10:35 AM 40.1 °F 31.6 °F 30.2 °F 68% 30.00 in 10.0 mi WNW 16.1 mph - N/A   Clear
10:55 AM 40.6 °F 33.0 °F 30.2 °F 66% 30.00 in 10.0 mi WNW 13.8 mph - N/A   Clear
11:15 AM 41.4 °F 34.7 °F 30.7 °F 66% 30.00 in 10.0 mi WNW 11.5 mph - N/A   Clear
11:35 AM 41.9 °F 36.3 °F 30.7 °F 65% 30.00 in 10.0 mi WNW 9.2 mph - N/A   Clear
11:55 AM 42.8 °F 38.0 °F 31.5 °F 64% 29.99 in 10.0 mi WNW 8.1 mph - N/A   Clear
12:15 PM 43.9 °F 38.8 °F 31.6 °F 62% 29.99 in 10.0 mi WNW 9.2 mph - N/A   Clear
12:35 PM 45.5 °F 39.6 °F 30.2 °F 55% 29.99 in 10.0 mi WNW 12.7 mph 17.3 mph N/A   Clear
12:55 PM 45.9 °F 39.7 °F 30.7 °F 56% 29.98 in 10.0 mi WNW 13.8 mph 17.3 mph N/A   Clear
1:15 PM 46.2 °F 39.3 °F 29.8 °F 53% 29.98 in 10.0 mi NW 17.3 mph - N/A   Clear
1:35 PM 46.4 °F 40.7 °F 30.4 °F 54% 29.97 in 10.0 mi NW 12.7 mph - N/A   Clear
1:55 PM 46.9 °F - 29.8 °F 51% 29.97 in 10.0 mi NW 13.8 mph - N/A   Clear
2:15 PM 46.9 °F - 31.3 °F 55% 29.98 in 10.0 mi WNW 11.5 mph - N/A   Clear
2:35 PM 47.7 °F - 30.2 °F 51% 29.98 in 10.0 mi NW 13.8 mph - N/A   Clear
2:55 PM 47.8 °F - 30.2 °F 50% 29.99 in 10.0 mi NW 11.5 mph - N/A   Clear
3:15 PM 47.7 °F - 31.8 °F 54% 30.00 in 10.0 mi WNW 8.1 mph - N/A   Clear
3:35 PM 47.7 °F - 30.9 °F 52% 30.01 in 10.0 mi WNW 10.4 mph - N/A   Clear
3:55 PM 47.3 °F - 31.1 °F 53% 30.02 in 10.0 mi WNW 11.5 mph - N/A   Clear
4:15 PM 45.9 °F 41.7 °F 31.6 °F 58% 30.02 in 10.0 mi NW 8.1 mph - N/A   Clear
4:35 PM 45.3 °F 40.6 °F 30.9 °F 57% 30.04 in 10.0 mi NNW 9.2 mph - N/A   Clear
4:55 PM 43.0 °F 39.5 °F 30.9 °F 62% 30.05 in 10.0 mi NNW 5.8 mph - N/A   Clear
5:15 PM 42.8 °F 38.0 °F 30.0 °F 61% 30.06 in 10.0 mi NW 8.1 mph - N/A   Clear
5:35 PM 40.1 °F 33.6 °F 30.0 °F 67% 30.07 in 10.0 mi NNW 10.4 mph - N/A   Clear
5:55 PM 39.2 °F 33.0 °F 30.0 °F 70% 30.08 in 10.0 mi NNW 9.2 mph - N/A   Clear
6:15 PM 38.5 °F 32.1 °F 29.8 °F 71% 30.09 in 10.0 mi NNW 9.2 mph - N/A   Clear
6:35 PM 36.9 °F 30.7 °F 29.3 °F 74% 30.10 in 10.0 mi NNW 8.1 mph - N/A   Clear
6:55 PM 38.1 °F 33.7 °F 28.9 °F 70% 30.12 in 10.0 mi NNW 5.8 mph - N/A   Clear
7:15 PM 35.8 °F 30.1 °F 28.6 °F 75% 30.13 in 10.0 mi NW 6.9 mph - N/A   Clear
7:35 PM 36.5 °F 29.7 °F 28.2 °F 72% 30.15 in 10.0 mi WNW 9.2 mph - N/A   Clear
7:55 PM 35.2 °F 28.8 °F 28.2 °F 76% 30.15 in 10.0 mi WNW 8.1 mph - N/A   Clear
8:15 PM 34.3 °F 28.4 °F 28.2 °F 78% 30.16 in 10.0 mi WNW 6.9 mph - N/A   Clear
8:35 PM 36.0 °F 28.5 °F 28.4 °F 74% 30.17 in 10.0 mi NW 10.4 mph - N/A   Clear
8:55 PM 36.7 °F 29.4 °F 28.4 °F 72% 30.19 in 10.0 mi NW 10.4 mph - N/A   Clear
9:15 PM 35.2 °F 28.1 °F 28.4 °F 76% 30.20 in 10.0 mi NW 9.2 mph - N/A   Clear
9:35 PM 33.8 °F 26.4 °F 27.9 °F 79% 30.21 in 10.0 mi WNW 9.2 mph - N/A   Clear
9:55 PM 33.8 °F 25.8 °F 27.9 °F 79% 30.21 in 10.0 mi NW 10.4 mph - N/A   Clear
10:15 PM 33.4 °F 26.6 °F 27.7 °F 79% 30.21 in 10.0 mi NW 8.1 mph - N/A   Clear
10:35 PM 33.1 °F 25.5 °F 27.7 °F 81% 30.22 in 10.0 mi NW 9.2 mph - N/A   Clear
10:55 PM 32.9 °F 25.3 °F 27.9 °F 82% 30.22 in 10.0 mi WNW 9.2 mph - N/A   Clear
11:15 PM 32.0 °F 23.6 °F 27.5 °F 83% 30.24 in 10.0 mi WNW 10.4 mph - N/A   Clear
11:35 PM 32.7 °F 25.0 °F 27.3 °F 81% 30.25 in 10.0 mi WNW 9.2 mph - N/A   Clear
11:55 PM 32.0 °F 23.6 °F 27.3 °F 83% 30.27 in 10.0 mi WNW 10.4 mph - N/A   Clear